STARLINK-32223, 60373

Orbit data source: Space-Track

STARLINK-32223, 60373 is a payload satellite owned by SpaceX/Seattle (US) in LEO that was launched on Sun, 04 Aug 2024 UTC via an FALCON 9 launch vehicle from the Air Force Western Test Range (AFWTR). Payload-class satellites include a variety of spacecraft equipped with specific instruments for various scientific and technological missions. These include communications satellites like Starlink; space stations such as the ISS; scientific satellites like the Hubble; Earth observation satellites from companies like Planet Labs, Umbra, and HawkEye 360; GPS; miniature CubeSats for education and research; and military/defense satellites.

Loading next visibility...
Identifier
60373, 2024-138U
Orbit
LEO
Country
Flag of USUS
Related business
Manufacturer
SpaceX/Seattle
Mission
Operational Commercial Communications
Bus & Motor
STARLINK V2M, Unknown motor
Mass
730 kg wet, ~700 kg dry
Launch date (UTC)
2024-08-04 (2 years ago)
Launch vehicle
FALCON 9
Launch site
Air Force Western Test Range (AFWTR)
Object type
Payload
Rocket body
Debris
Shape & HBR
Box + 2 Pan, 17.7 m
Radar Cross Section
33.884 m², Large (>1 m²)

Expand to show TLE details & history
Last TLE update: 17 hours ago

TLE from 17 hours ago
0 STARLINK-32223
1 60373U 24138U   26257.97270324  .00001369  00000-0  55856-4 0  9995
2 60373  53.1596 149.2701 0001448  95.1537 264.9629 15.31706421119527
Epoch: 2026-09-14T23:20Z
TLE epoch observation values (Epoch: 2026-09-14T23:20:41.559Z)
Latitude
-0.0001°
Longitude
165.15153°
Altitude
471.708 km
Speed
7.631 km/s
True Right ascension
09h 57m 04s
True Declination
0° 00' 00"
Sunlit
Object was in daylight at epoch
Visualization orbit readout
Latitude
Unknown
Longitude
Unknown
Altitude
Unknown
Speed
Unknown
Apparent Right ascension
Unknown
Apparent Declination
Unknown
Sunlit
N/A
Visualization observer readout
Local Sidereal Time
08:42:00
Azimuth
Unknown
Elevation
Unknown
Doppler factor
Unknown
Orbital elements
Apogee altitude
471.969 km
Perigee altitude
469.986 km
Semi-major axis
6,849.115 km
Eccentricity
0.00014
Inclination
53.1596°
RAAN
149.2701°
Arg. of periapsis
95.1537°
True anomaly
264.94637°
Mean anomaly
264.9629°
Eccentric anomaly
264.95464°
Mean motion
3.82905 °/min
Orbital period
94.02 mins
BSTAR
0.000055856
Loading maneuver chart data...
Computing Atmospheric mass density...
Loading historical data...
Loading historical data...
Loading historical data...
Loading historical data...
Loading historical data...
Loading historical data...
Loading historical data...

Documentation

Showing up to 5 results
|